[[{"header":{"parameterUnit":"m.s-1","parameterCategory":1,"la1":30.2991,"la2":30.254,"lo1":-89.0895,"lo2":-89.0444,"dy":0.0017,"dx":0.0017,"nx":28,"ny":28,"refTime":"2025-03-11T03:00:00:Z","depth":0,"parameterNumber":2,"parameterNumberName":"U-component_of_WINDS"},"data":[0,0,0,0,0,0,0,0,0,0,0,0,0,0,0,0,0,0,0,0,0,0,0,0,0,0,0,0,0,0,0,0,0,0,0,0,0,0,0,0,0,0,0,0,0,0,0,0,0,0,0,0,0,0,0,0,0,0,0.6593,0.6593,0,0.658,0.6579,0.6579,0.6566,0.6566,0.6566,0.6566,0.6552,0.6552,0.6551,0,0,0,0,0,0,0,0,0,0,0,0,0,0.6608,0.6608,0.6593,0.6593,0.6593,0.658,0.6579,0.6579,0.6566,0.6566,0.6566,0.6566,0.6552,0.6552,0.6551,0,0,0,0,0,0,0,0,0,0,0,0,0,0.6599,0.6608,0.6593,0.6585,0.6584,0.658,0.6579,0.6579,0.6566,0.6566,0.6566,0.6566,0.6552,0.6552,0.6551,0.6554,0,0,0.655,0.655,0,0,0,0,0,0,0,0,0.6599,0.6598,0.6586,0.6585,0.6584,0.6574,0.6579,0.6571,0.6567,0.6573,0.6566,0.6566,0.656,0.6559,0.6557,0.6554,0.6553,0.655,0.655,0.655,0.655,0,0,0,0,0,0,0,0.66,0.6599,0.6588,0.6586,0.6585,0.6582,0.658,0.6578,0.6568,0.6573,0.6572,0.657,0.6559,0.6557,0.6556,0.6553,0.655,0.655,0.655,0.655,0.6552,0.6552,0,0,0,0,0,0,0.6602,0.6599,0.6588,0.6587,0.6591,0.6582,0.658,0.6578,0.6568,0.6566,0.657,0.657,0.6558,0.6557,0.6556,0.6559,0.655,0.655,0.6549,0.6551,0.6552,0.6552,0,0,0,0,0,0,0.6602,0.6601,0.6589,0.6593,0.6591,0.6582,0.658,0.6578,0.6576,0.6566,0.6564,0.657,0.6557,0.6556,0.6555,0.6558,0.6549,0.6549,0.6551,0.6552,0.6552,0.6564,0,0,0,0,0,0,0.6603,0.6601,0.6602,0.6593,0.6591,0.6588,0.658,0.6578,0.6575,0.6574,0.6565,0.6564,0.6557,0.6555,0.6554,0.6557,0.6549,0.6551,0.6551,0.6552,0.6564,0.6565,0.6566,0,0,0,0,0,0.6603,0.6606,0.6602,0.6601,0.6592,0.6588,0.6587,0.658,0.6575,0.6576,0.657,0.6564,0.6558,0.6555,0.6554,0.6557,0.6551,0.6551,0.6552,0.6563,0.6565,0.6566,0,0,0,0,0,0,0.6616,0.6605,0.66,0.6601,0.6596,0.6586,0.6587,0.6582,0.6578,0.6577,0.6567,0.6565,0.6565,0.6561,0.6558,0.6559,0.6553,0.6554,0.6562,0.6564,0.6565,0.6566,0.6549,0,0,0,0,0,0.6618,0.6616,0.6607,0.6608,0.6606,0.6597,0.6595,0.6589,0.6584,0.6582,0.6576,0.657,0.6567,0.6565,0.6562,0.6563,0.6561,0.6564,0.6566,0.6567,0.6567,0.6568,0.6569,0.6554,0.6554,0.6554,0,0,0.6624,0.6618,0.6617,0.661,0.6606,0.6604,0.6595,0.6594,0.6592,0.6581,0.658,0.6575,0.6569,0.6569,0.6568,0.6565,0.6571,0.6568,0.6569,0.6569,0.6569,0.657,0.6572,0.6554,0.6554,0.6554,0,0,0.6633,0.6628,0.6629,0.6625,0.6618,0.6612,0.6612,0.6604,0.66,0.6599,0.6591,0.6589,0.6583,0.6579,0.6577,0.6585,0.6579,0.6584,0.6591,0.6592,0.6593,0.6594,0.6597,0.6598,0.6584,0.6584,0.6584,0,0.6641,0.6638,0.663,0.6629,0.6626,0.6616,0.6617,0.6613,0.6606,0.6604,0.66,0.6594,0.6588,0.6588,0.659,0.6588,0.6587,0.6585,0.6593,0.6594,0.6595,0.6598,0.6599,0.6585,0.6585,0.6585,0.6585,0,0.6648,0.6646,0.6648,0.6641,0.6638,0.6638,0.6629,0.6628,0.6623,0.6617,0.6616,0.6609,0.6604,0.6604,0.6598,0.6602,0.66,0.6595,0.6589,0.6598,0.66,0.6601,0.6586,0.6586,0.6585,0.6585,0,0,0.6665,0.6654,0.6655,0.6652,0.6644,0.6642,0.6641,0.6637,0.6635,0.6631,0.663,0.6626,0.6621,0.6618,0.6612,0.6612,0.6619,0.6607,0.6607,0.661,0.6623,0.6628,0.6629,0.6615,0.6616,0.6616,0.6624,0,0.6674,0.6672,0.6665,0.6665,0.6663,0.6654,0.6653,0.6648,0.6643,0.6641,0.6635,0.6633,0.6626,0.6624,0.6625,0.6619,0.6622,0.6618,0.6615,0.6615,0.6617,0.663,0.6635,0.6643,0.6625,0.6625,0.6625,0,0.6683,0.6679,0.668,0.6672,0.6671,0.6671,0.6666,0.6664,0.6658,0.6654,0.6651,0.6644,0.6643,0.6637,0.6635,0.6632,0.6631,0.6627,0.6628,0.6627,0.6621,0.6631,0.6645,0.6647,0.6627,0.6627,0.6626,0,0.6696,0.6691,0.669,0.6688,0.6679,0.6679,0.6675,0.6669,0.6667,0.6662,0.6661,0.6657,0.6654,0.6651,0.6644,0.664,0.6643,0.6636,0.664,0.664,0.6641,0.6641,0.6656,0.664,0.664,0.664,0.6639,0,0.6707,0.6707,0.6696,0.6696,0.6696,0.6688,0.6689,0.6684,0.6678,0.6677,0.6669,0.6668,0.6658,0.6656,0.665,0.6649,0.6648,0.6645,0.6644,0.6646,0.6647,0.6645,0.6645,0.664,0.664,0.664,0.664,0,0.6721,0.6714,0.6713,0.6704,0.6702,0.6703,0.6695,0.6695,0.6689,0.6688,0.6687,0.6678,0.6675,0.6667,0.6662,0.6658,0.666,0.6657,0.6662,0.6661,0.6665,0.6665,0.668,0.6681,0.6664,0.6664,0.6664,0,0.6728,0.6729,0.672,0.6719,0.6715,0.6713,0.6711,0.6702,0.67,0.6694,0.6694,0.6691,0.6687,0.6683,0.6676,0.6672,0.6669,0.6675,0.6669,0.6671,0.667,0.667,0.667,0.6676,0.6676,0.6676,0.6677,0,0.6742,0.6739,0.6736,0.6732,0.6729,0.6726,0.6721,0.6721,0.6711,0.6709,0.6706,0.6704,0.6698,0.6695,0.669,0.6686,0.668,0.6679,0.6679,0.6682,0.6685,0.6684,0.6666,0.6678,0.6678,0.6678,0.6678,0.6678,0.6754,0.6754,0.6748,0.6745,0.6741,0.6737,0.6736,0.6731,0.6728,0.6723,0.6718,0.6716,0.671,0.6703,0.6699,0.6697,0.6694,0.6695,0.6695,0.6696,0.6697,0.6685,0.6696,0.6696,0.6696,0.6696,0.6696,0,0.6767,0.6763,0.6761,0.6755,0.6753,0.6747,0.6742,0.6741,0.6739,0.6734,0.6731,0.6727,0.6724,0.6717,0.6713,0.6713,0.671,0.6712,0.6712,0.6711,0.67,0.67,0.6714,0.6714,0.6714,0.6714,0.6714,0.6714,0.6774,0.6774,0.677,0.6767,0.6763,0.6761,0.6759,0.6755,0.6751,0.6748,0.6745,0.674,0.6735,0.673,0.6727,0.6725,0.6724,0.6727,0.6724,0.6714,0.6712,0.671,0.671,0.6727,0.6727,0.6736,0.6736,0.6736]},{"header":{"parameterUnit":"m.s-1","parameterCategory":1,"la1":30.2991,"la2":30.254,"lo1":-89.0895,"lo2":-89.0444,"dy":0.0017,"dx":0.0017,"nx":28,"ny":28,"refTime":"2025-03-11T03:00:00:Z","depth":0,"parameterNumber":3,"parameterNumberName":"V-component_of_WINDS"},"data":[0,0,0,0,0,0,0,0,0,0,0,0,0,0,0,0,0,0,0,0,0,0,0,0,0,0,0,0,0,0,0,0,0,0,0,0,0,0,0,0,0,0,0,0,0,0,0,0,0,0,0,0,0,0,0,0,0,0,0.2019,0.2019,0,0.1991,0.1991,0.1991,0.1994,0.1995,0.1995,0.1996,0.1966,0.1964,0.1963,0,0,0,0,0,0,0,0,0,0,0,0,0,0.2074,0.2073,0.2019,0.2019,0.2019,0.1991,0.1991,0.1991,0.1994,0.1995,0.1995,0.1996,0.1966,0.1965,0.1963,0,0,0,0,0,0,0,0,0,0,0,0,0,0.2049,0.2073,0.2019,0.2017,0.2017,0.1992,0.1991,0.1991,0.1994,0.1995,0.1996,0.1996,0.1967,0.1965,0.1963,0.1938,0,0,0.1957,0.1956,0,0,0,0,0,0,0,0,0.205,0.2047,0.2018,0.2017,0.2017,0.1997,0.1999,0.1973,0.1994,0.2003,0.1996,0.1997,0.1975,0.1973,0.1966,0.1936,0.1935,0.1957,0.1956,0.1955,0.1955,0,0,0,0,0,0,0,0.2052,0.2048,0.2008,0.2018,0.2017,0.2017,0.2014,0.1994,0.1985,0.2002,0.2002,0.1999,0.1975,0.1968,0.1965,0.1934,0.1957,0.1955,0.1954,0.1954,0.1882,0.1881,0,0,0,0,0,0,0.2055,0.205,0.2009,0.2007,0.2036,0.2016,0.2012,0.2003,0.1986,0.1984,0.1998,0.1999,0.1971,0.1968,0.1964,0.1933,0.1955,0.1953,0.1952,0.1883,0.1882,0.1881,0,0,0,0,0,0,0.2056,0.2051,0.201,0.2029,0.2023,0.2014,0.2003,0.2002,0.1994,0.1983,0.1981,0.1993,0.1971,0.1967,0.1944,0.1932,0.1953,0.1951,0.1884,0.1882,0.1881,0.1871,0,0,0,0,0,0,0.2057,0.2051,0.2042,0.2028,0.2022,0.1991,0.2002,0.2001,0.1991,0.1992,0.1977,0.1975,0.1971,0.1947,0.1942,0.193,0.1949,0.1885,0.1883,0.1882,0.1873,0.187,0.1867,0,0,0,0,0,0.2059,0.204,0.2042,0.2037,0.2011,0.199,0.1987,0.1983,0.199,0.1981,0.1973,0.1976,0.1934,0.1945,0.1939,0.1926,0.1885,0.1883,0.1882,0.1874,0.187,0.1868,0,0,0,0,0,0,0.2052,0.2038,0.204,0.2016,0.2004,0.1991,0.1979,0.198,0.1966,0.1967,0.1963,0.1959,0.1936,0.1929,0.1941,0.1901,0.1911,0.1908,0.1906,0.1903,0.1901,0.1903,0.1948,0,0,0,0,0,0.2048,0.2033,0.2022,0.2001,0.1996,0.1988,0.1979,0.1977,0.1965,0.196,0.1951,0.1939,0.1923,0.1913,0.1898,0.1872,0.1868,0.186,0.1858,0.1856,0.1853,0.1838,0.1834,0.1875,0.1875,0.1875,0,0,0.2039,0.2029,0.202,0.2,0.1991,0.1975,0.1984,0.1967,0.1955,0.1958,0.1936,0.1928,0.1914,0.189,0.1878,0.1883,0.1841,0.1853,0.1852,0.185,0.1836,0.1832,0.1829,0.1874,0.1874,0.1874,0,0,0.2014,0.2005,0.1987,0.1978,0.1965,0.196,0.1956,0.1942,0.1938,0.1916,0.1917,0.1903,0.1876,0.1865,0.1857,0.1828,0.1829,0.1823,0.181,0.1795,0.1792,0.1789,0.1779,0.1775,0.1821,0.1821,0.1821,0,0.2004,0.1981,0.1978,0.1961,0.1952,0.1953,0.1935,0.1926,0.1908,0.1901,0.1907,0.1873,0.1864,0.1837,0.183,0.1823,0.1817,0.1825,0.1793,0.179,0.1787,0.1777,0.1773,0.182,0.182,0.182,0.182,0,0.1969,0.1953,0.194,0.1923,0.1912,0.1894,0.1889,0.1878,0.1877,0.1871,0.1849,0.1838,0.182,0.1814,0.1813,0.1786,0.179,0.1794,0.1804,0.1783,0.1773,0.1769,0.1819,0.1819,0.1819,0.182,0,0,0.1939,0.192,0.1916,0.1908,0.1893,0.188,0.1862,0.1846,0.1836,0.1824,0.1808,0.1786,0.179,0.178,0.1777,0.1765,0.1742,0.1771,0.1771,0.1766,0.1712,0.1708,0.1704,0.1743,0.1743,0.1742,0.1713,0,0.1912,0.1881,0.1878,0.185,0.1834,0.1836,0.182,0.1809,0.1804,0.1789,0.1783,0.1767,0.1774,0.1768,0.1755,0.1748,0.1731,0.175,0.1728,0.1728,0.1731,0.1699,0.1695,0.1668,0.1709,0.1709,0.1708,0,0.1877,0.1863,0.1834,0.1821,0.1815,0.1801,0.1785,0.1772,0.1759,0.1756,0.1745,0.1744,0.1725,0.1736,0.1709,0.1722,0.1713,0.1708,0.1707,0.1704,0.1716,0.1695,0.166,0.1655,0.1702,0.1703,0.1703,0,0.1857,0.1832,0.1811,0.1804,0.1789,0.1779,0.1772,0.176,0.175,0.1736,0.1729,0.1713,0.1704,0.1692,0.1687,0.1695,0.166,0.1671,0.1656,0.1656,0.1648,0.1649,0.1611,0.1643,0.1644,0.1644,0.1644,0,0.1827,0.1809,0.1802,0.1789,0.1768,0.1765,0.1744,0.1738,0.1727,0.1712,0.1713,0.1699,0.1693,0.1678,0.1674,0.1652,0.1648,0.1645,0.1644,0.1644,0.1645,0.1638,0.1639,0.1643,0.1643,0.1643,0.1643,0,0.1801,0.1796,0.1773,0.176,0.1757,0.1742,0.1731,0.1718,0.1713,0.1694,0.169,0.1681,0.1663,0.1657,0.1636,0.1633,0.1607,0.1608,0.1612,0.1611,0.1597,0.1598,0.1553,0.1546,0.1584,0.1584,0.1583,0,0.1782,0.1768,0.1754,0.1745,0.1738,0.1722,0.1712,0.1708,0.1698,0.1682,0.1671,0.1654,0.164,0.1611,0.1603,0.1586,0.1586,0.1571,0.1584,0.1585,0.1585,0.1586,0.1584,0.1569,0.1569,0.1568,0.1568,0,0.1749,0.1747,0.1733,0.1718,0.1706,0.1694,0.1682,0.1674,0.1668,0.1656,0.1639,0.1628,0.1606,0.1588,0.1572,0.1564,0.1564,0.1564,0.156,0.156,0.1563,0.1561,0.1605,0.1565,0.1565,0.1566,0.1566,0.1566,0.1726,0.1714,0.1702,0.1686,0.1677,0.1665,0.1653,0.1646,0.1631,0.1614,0.1612,0.1593,0.158,0.1557,0.1549,0.1533,0.1537,0.1531,0.153,0.1528,0.1527,0.1566,0.153,0.153,0.153,0.1531,0.1531,0,0.1693,0.1685,0.1671,0.1654,0.1642,0.1644,0.1631,0.162,0.1603,0.1592,0.1578,0.1557,0.154,0.1531,0.1514,0.1503,0.1503,0.1499,0.1499,0.1497,0.1524,0.153,0.1499,0.1499,0.1499,0.1499,0.1499,0.1499,0.1674,0.1653,0.1649,0.1624,0.1616,0.1598,0.159,0.1579,0.157,0.1547,0.1533,0.1527,0.1516,0.1498,0.1483,0.148,0.1473,0.1469,0.1466,0.1492,0.1495,0.1498,0.1503,0.1467,0.1467,0.144,0.144,0.144]}]]